Location: Unspecified
(0.0000°N, 0.0000°E)
Time: 12:47:20
(UTC+00:00)

Vanguard 1 Rocket - All Passes

Search period start: 16 January 2017 00:00
Search period end: 26 January 2017 00:00
Orbit: 650 x 4226 km, 34.3° (Epoch: 14 January)

Date Brightness Start Highest point End Pass type
(mag) Time Alt. Az. Time Alt. Az. Time Alt. Az.
16 Jan - 01:16:53 10° SSW 01:22:18 23° SSE 01:26:14 10° E night (unlit)
16 Jan - 03:43:20 10° W 03:47:33 32° NW 03:51:34 10° NNE visible
16 Jan - 11:07:43 10° NNW 11:19:27 26° NE 11:36:50 10° E daylight
16 Jan - 13:32:00 10° NW 13:51:25 70° NE 14:17:49 10° ESE daylight
16 Jan - 16:01:41 10° WNW 16:25:26 57° SW 16:48:38 10° SE daylight
16 Jan - 18:43:08 10° WSW 19:01:17 24° SSW 19:15:09 10° SSE visible
16 Jan - 21:37:18 10° S 21:38:00 10° S 21:38:41 10° S visible
17 Jan - 00:05:24 10° SSW 00:10:08 15° SSE 00:13:45 10° SE visible
17 Jan - 02:31:09 10° SW 02:36:55 89° SE 02:41:16 10° NE night (unlit)
17 Jan - 09:59:04 10° N 10:05:16 14° NNE 10:13:13 10° ENE daylight
17 Jan - 12:20:41 10° NNW 12:36:42 50° NE 13:01:06 10° ESE daylight
17 Jan - 14:47:31 10° WNW 15:09:29 76° SW 15:35:21 10° SE daylight
17 Jan - 17:22:43 10° W 17:44:51 34° SSW 18:03:34 10° SSE daylight
17 Jan - 20:12:58 10° SW 20:22:14 14° SSW 20:29:34 10° SSE visible
17 Jan - 22:53:05 10° SSW 22:57:01 12° S 23:00:16 10° SSE visible
18 Jan - 01:19:10 10° SW 01:25:54 39° SSE 01:30:23 10° E night (unlit)
18 Jan - 03:47:37 10° W 03:50:49 18° NW 03:53:53 10° N visible
18 Jan - 11:10:17 10° NNW 11:22:39 32° NE 11:41:58 10° E daylight
18 Jan - 13:34:53 10° NW 13:54:01 82° NE 14:20:49 10° SE daylight
18 Jan - 16:05:33 10° WNW 16:28:27 48° SW 16:51:12 10° SE daylight
18 Jan - 18:49:16 10° WSW 19:05:36 20° SSW 19:18:18 10° SSE visible
18 Jan - 21:37:56 10° SSW 21:42:44 12° S 21:46:44 10° SSE visible
19 Jan - 00:07:01 10° SSW 00:14:04 23° SSE 00:18:46 10° ESE visible
19 Jan - 02:34:27 10° WSW 02:40:08 50° NW 02:44:23 10° NE night (unlit)
19 Jan - 10:01:09 10° N 10:08:59 18° NE 10:19:58 10° ENE daylight
19 Jan - 12:23:25 10° NW 12:39:22 60° NE 13:04:39 10° ESE daylight
19 Jan - 14:50:52 10° WNW 15:12:16 65° SW 15:37:57 10° SE daylight
19 Jan - 17:27:52 10° W 17:48:39 29° SSW 18:06:23 10° SSE daylight
19 Jan - 20:18:10 10° SW 20:27:07 14° S 20:34:11 10° SSE visible
19 Jan - 22:54:10 10° SSW 23:01:16 17° SSE 23:06:18 10° SE visible
20 Jan - 01:21:49 10° SW 01:29:22 65° SSE 01:34:05 10° ENE night (unlit)
20 Jan - 11:12:54 10° NNW 11:25:35 39° NE 11:46:29 10° ESE daylight
20 Jan - 13:37:56 10° NW 13:56:40 85° SW 14:23:35 10° SE daylight
20 Jan - 16:09:48 10° W 16:31:46 40° SSW 16:53:48 10° SSE daylight
20 Jan - 18:55:27 10° SW 19:10:18 18° SSW 19:21:55 10° SSE visible
20 Jan - 21:39:40 10° SSW 21:47:21 15° S 21:53:04 10° SE visible
21 Jan - 00:09:07 10° SW 00:17:51 35° SSE 00:23:05 10° E visible
21 Jan - 02:38:13 10° W 02:43:15 29° NW 02:47:09 10° NNE night (unlit)
21 Jan - 10:03:25 10° N 10:12:22 23° NE 10:25:55 10° E daylight
21 Jan - 12:26:16 10° NW 12:41:59 71° NE 13:07:51 10° ESE daylight
21 Jan - 14:54:30 10° WNW 15:15:17 55° SW 15:40:27 10° SE daylight
21 Jan - 17:33:29 10° WSW 17:52:51 25° SSW 18:09:26 10° SSE daylight
21 Jan - 20:22:09 10° SSW 20:32:02 15° S 20:39:32 10° SSE visible
21 Jan - 22:55:53 10° SSW 23:05:22 24° SSE 23:11:19 10° ESE visible
22 Jan - 01:24:49 10° WSW 01:32:38 77° NW 01:37:25 10° NE night (unlit)
22 Jan - 11:15:35 10° NNW 11:28:19 48° NE 11:50:27 10° ESE daylight
22 Jan - 13:41:12 10° WNW 13:59:28 73° SW 14:26:10 10° SE daylight
22 Jan - 16:14:30 10° W 16:35:27 34° SSW 16:56:30 10° SSE daylight
22 Jan - 19:01:13 10° SW 19:15:15 18° S 19:26:10 10° SSE visible
22 Jan - 21:41:33 10° SSW 21:51:46 19° SSE 21:58:39 10° SE visible
23 Jan - 00:11:32 10° SW 00:21:27 53° SSE 00:26:57 10° ENE visible
23 Jan - 02:42:37 10° W 02:46:20 17° NW 02:49:25 10° N night (unlit)
23 Jan - 10:05:51 10° NNW 10:15:26 29° NE 10:31:06 10° E daylight
23 Jan - 12:29:16 10° NW 12:44:40 85° NE 13:10:44 10° SE daylight
23 Jan - 14:58:30 10° W 15:18:34 46° SSW 15:42:57 10° SE daylight
23 Jan - 17:39:23 10° WSW 17:57:29 22° SSW 18:12:53 10° SSE daylight
23 Jan - 20:25:14 10° SSW 20:36:50 18° S 20:45:08 10° SE visible
23 Jan - 22:57:54 10° SW 23:09:17 34° SSE 23:15:45 10° E visible
24 Jan - 01:28:09 10° WSW 01:35:45 47° NW 01:40:29 10° NNE night (unlit)
24 Jan - 08:57:57 10° N 09:02:50 14° NE 09:09:09 10° ENE daylight
24 Jan - 11:18:23 10° NW 11:31:00 59° NE 11:53:57 10° ESE daylight
24 Jan - 13:44:42 10° WNW 14:02:30 61° SW 14:28:37 10° SE daylight
24 Jan - 16:19:39 10° WSW 16:39:34 29° SSW 16:59:24 10° SSE daylight
24 Jan - 19:06:09 10° SW 19:20:19 18° S 19:31:05 10° SE visible
24 Jan - 21:43:31 10° SSW 21:56:01 26° SSE 22:03:40 10° ESE visible
25 Jan - 00:14:12 10° SW 00:24:50 81° SE 00:30:30 10° ENE visible
25 Jan - 10:08:24 10° NNW 10:18:18 36° NE 10:35:36 10° ESE daylight
25 Jan - 12:32:26 10° WNW 12:47:29 82° SW 13:13:23 10° SE daylight
25 Jan - 15:02:51 10° W 15:22:12 38° SSW 15:45:29 10° SE daylight
25 Jan - 17:45:14 10° SW 18:02:27 21° S 18:16:54 10° SSE daylight
25 Jan - 20:27:49 10° SSW 20:41:27 21° S 20:50:33 10° ESE visible
25 Jan - 23:00:08 10° SW 23:13:00 48° SSE 23:19:46 10° ENE visible
